Showing default

SUPERVIEW NEO-2 04, 62080

Orbit data source: Space-Track

SUPERVIEW NEO-2 04, 62080 is a payload satellite owned by Siwei (CN) in SSO that was launched on Sun, 24 Nov 2024 UTC via a CHANG ZHENG 2C launch vehicle from the Jiuquan Satellite Launch Center, China (JSC). Payload-class satellites include a variety of spacecraft equipped with specific instruments for various scientific and technological missions. These include communications satellites like Starlink; space stations such as the ISS; scientific satellites like the Hubble; Earth observation satellites from companies like Planet Labs, Umbra, and HawkEye 360; GPS; miniature CubeSats for education and research; and military/defense satellites.

Loading next visibility...
Identifier
62080, 2024-218C
Orbit
SSO
Country
Flag of CNCN / PRC
Related business
Manufacturer
DFH
Mission
Operational Commercial Radar Imaging
Bus & Motor
SIWEI, Unknown motor
Mass
600 kg wet, ~500 kg dry
Launch date (UTC)
2024-11-24 (10 months ago)
Launch vehicle
CHANG ZHENG 2C
Launch site
Jiuquan Satellite Launch Center, China (JSC)
Object type
Payload
Rocket body
Debris
Shape & HBR
Box, 0.3 m
Radar Cross Section
0.375 m², Large (>1 m²)

Expand to show TLE details & history
Last TLE update: 2 days ago

TLE from 2 days ago
0 SUPERVIEW NEO-2 04
1 62080U 24218C   25258.81300770  .00004439  00000-0  21091-3 0  9997
2 62080  97.4391 265.0998 0001387 112.3798 247.7584 15.19726768 44771
Epoch: 2025-09-15T19:30Z
TLE epoch observation values (Epoch: 2025-09-15T19:30:43.865Z)
Latitude
-0.00001°
Longitude
-22.59525°
Altitude
510.116 km
Speed
7.609 km/s
True Right ascension
17h 40m 23s
True Declination
0° 00' 00"
Sunlit
Object was in daylight at epoch
Visualization orbit readout
Latitude
Unknown
Longitude
Unknown
Altitude
Unknown
Speed
Unknown
Apparent Right ascension
Unknown
Apparent Declination
Unknown
Sunlit
N/A
Visualization observer readout
Local Sidereal Time
20:42:22
Azimuth
Unknown
Elevation
Unknown
Doppler factor
Unknown
Orbital elements
Apogee altitude
504.588 km
Perigee altitude
502.679 km
Semi-major axis
6,881.77 km
Eccentricity
0.00014
Inclination
97.4391°
RAAN
265.0998°
Arg. of periapsis
112.3798°
True anomaly
247.74369°
Mean anomaly
247.7584°
Eccentric anomaly
247.75104°
Mean motion
3.80183 °/min
Orbital period
94.69 mins
BSTAR
0.00021091
Loading maneuver chart data...
Computing Atmospheric mass density...
Loading historical data...
Loading historical data...
Loading historical data...
Loading historical data...
Loading historical data...
Loading historical data...
Loading historical data...
Other satellites on launch #218 in the year 2024 (2024-11-24 UTC)

Documentation

Showing up to 5 results
|